sat.trackr.live / text

‹ back to catalog

HODOYOSHI-3

NORAD 40015 · 2014-033F

PAYLOAD ACTIVE UNKNOWN

§ Identity

Operator
Country
JPN
Launch date
2014-06-19
Launch site
DLS
Launch vehicle
Mass (kg)
RCS (m²)
0.35

Purposes: earth_obs

External: N2YO · Heavens-Above · Gunter

§ Orbital elements

Epoch: 2026-05-25T00:16:32.718720Z

Period
96.95 min
Inclination
97.6400°
Eccentricity
0.0034306
Mean motion
14.85333099 rev/d
Perigee alt
588.6 km
Apogee alt
636.5 km
Semi-major
6,990.7 km
B*
1.0335e-4
RAAN
308.9889°
Arg perigee
71.9682°
Mean anomaly
288.5266°
Rev number
64,418

§ Raw data

HODOYOSHI-31 40015U 14033F   26145.01148980  .00000845  00000+0  10335-3 0  99912 40015  97.6400 308.9889 0034306  71.9682 288.5266 14.85333099644187

JSON: /api/v1/satellites/40015 · /tle

For live sub-satellite position, see the globe view (requires WebGL).

§ Visibility from observer

Set your observer location to see the next 7 days of passes ≥ 10°. The values pass through the URL so the page stays shareable.

No JS? Fill the form by hand. The geolocation button needs JavaScript.

§ Radio — SatNOGS DB

ModeDescriptionDownlinkUplink
FM S-band telemetry 2.264 GHz

1 transmitter · refreshed weekly from db.satnogs.org